Rbgn^[z[y[W
メイン
   新天体発見情報
     Comet C/2018 N2 (ASASSN)
投稿するにはまず登録を

スレッド表示 | 古いものから 前のトピック | 次のトピック | 下へ
投稿者 スレッド
佐藤裕久
投稿日時: 2018-7-25 5:09
モデレータ
登録日: 2005-6-12
居住地: 日本
投稿: 2505
オンライン
Comet C/2018 N2 (ASASSN)

B. Shappeeの通報によると、7月7-11日、"All-Sky Automated Survey for Supernovae" (ASASSN)
プログラムのコースに、三夜、Cerro Tololoにある"Cassius"14-cm survey telescopeで彗星を発見
した。発見イメージの説明はなかった。
小惑星センターのPCCP webpageに公表後、佐藤英貴氏(東京都文京区, iTelescope天文台,7月14.8日
UT, 7枚のスタック,  0.51-m f/6.8 アストログラフ, Siding Spring, 遠隔操作:
強い集光のある25"の円盤のようなコマとp.a.220°に向かってた15"伸びた尾の気配がある。13".1の
円形範囲で測定した全光度は16.1等であった)らCCD観測者によって彗星状と観測された。

発見位置は次のとおり、

     2018 UT             R.A. (2000) Decl.       Mag.
     July  7.38822    3 07 32.96   -40 59 07.3   16.4
           7.38949    3 07 32.86   -40 59 11.5   16.3
           7.39076    3 07 33.20   -40 59 07.4   16.2
          10.40014    3 08 43.15   -41 04 23.0   16.7
          10.40136    3 08 43.35   -41 04 28.0   16.6
          10.40258    3 08 43.21   -41 04 27.1   16.7
          11.42509    3 09 05.90   -41 06 26.0   16.4
          11.42631    3 09 05.71   -41 06 26.0   16.3
          11.42752    3 09 05.78   -41 06 27.7   16.5

放物線軌道要素と位置推算表は次のとおり、

Orbital elements:
    C/2018 N2 (ASASSN)
T 2019 Oct. 4.09355 TT                                  MPCW
q   3.0054453            (2000.0)            P               Q
                   Peri.   23.85145     +0.81020066     -0.44456914
                   Node    22.96021     +0.23898635     -0.34455345
e   1.0            Incl.   78.31835     +0.53521997     +0.82682598
>From 26 observations 2018 July 7-15.

Ephemeris:
    C/2018 N2 (ASASSN)
Date    TT    R. A. (2000) Decl.     Delta      r     Elong.  Phase   m1
2018 06 16    02 56 49.8 -40 53 05   5.5267  5.3390    74.1    10.5  17.0
...
2018 07 01    03 04 45.0 -40 51 42   5.2969  5.2347    81.0    11.1  16.8
...
2018 07 09    03 08 11.1 -41 01 51   5.1700  5.1792    84.9    11.3  16.7
...
2018 07 15    03 10 19.0 -41 14 22   5.0737  5.1377    87.9    11.4  16.6
2018 07 16    03 10 37.8 -41 16 51   5.0576  5.1308    88.4    11.4  16.6
2018 07 17    03 10 55.9 -41 19 27   5.0415  5.1239    88.9    11.4  16.6
...
2018 07 23    03 12 27.8 -41 37 19   4.9446  5.0825    92.0    11.5  16.5
...
2018 07 31    03 13 42.5 -42 06 56   4.8160  5.0273    96.2    11.6  16.4
...
2018 08 15    03 13 06.6 -43 17 47   4.5804  4.9244   104.0    11.5  16.2

(CBET 4534、MPEC 2018-O01)


スレッド表示 | 古いものから 前のトピック | 次のトピック | トップ

投稿するにはまず登録を
 
© 1999 Tsutomu Seki.